Dubuque, IA

8:08 PM CST on November 14, 2019 (GMT -0600)
Dubuque Regional

Weather History for KDBQ - September, 2019

Change the Weather History Date:

Tuesday, September 17, 2019

  Actual Average Record
Temperature  
Mean Temperature 68 °F 62 °F  
Max Temperature 75 °F 72 °F 91 °F (1927)
Min Temperature 60 °F 51 °F 38 °F (1916)
Degree Days  
Heating Degree Days 0 5  
Month to date heating degree days 24 54  
Since 1 July heating degree days 33 81  
Cooling Degree Days 3 2  
Month to date cooling degree days 54 47  
Year to date cooling degree days 627 623  
Growing Degree Days 18 (Base 50)    
Moisture  
Dew Point 64 °F    
Average Humidity 92    
Maximum Humidity 100    
Minimum Humidity 74    
Precipitation  
Precipitation 0.00 in 0.12 in 2.09 in (1938)
Month to date precipitation 8.34 2.00  
Year to date precipitation 39.47 27.98  
Snow  
Snow 0.00 in 0.00 in - ()
Month to date snowfall 0.0 0.0  
Since 1 July snowfall 0.0 0.0  
Since 1 September snowfall 0.0 0.0  
Snow Depth 0.00 in    
Sea Level Pressure  
Sea Level Pressure 30.12 in    
Wind  
Wind Speed 7 mph ()    
Max Wind Speed 15 mph    
Max Gust Speed 21 mph    
Visibility 6.3 miles    
Events Fog    
T = Trace of Precipitation, MM = Missing Value Source: Averaged Metar Reports

Daily Weather History Graph

Daily Weather History Graph

Search for Another Location

Airport or City:

Astronomy

Sep. 17, 2019 Rise Set
Actual Time 6:44 AM CDT 7:09 PM CDT
Civil Twilight 6:16 AM CDT 7:37 PM CDT
Nautical Twilight 5:43 AM CDT 8:10 PM CDT
Astronomical Twilight 5:09 AM CDT 8:44 PM CDT
Moon 9:08 PM CDT (9/17) 9:52 AM CDT (9/17)
Length of Visible Light 13h 20m
Length of Day
12h 24m
Waning Gibbous, 89% of the Moon is Illuminated
Sep 17
Waning Gibbous
Sep 21
Last Quarter
Sep 28
New
Oct 5
First Quarter
Oct 13
Full

Hourly Weather History & Observations

Time (CDT) Temp. Dew Point Humidity Pressure Visibility Wind Dir Wind Speed Gust Speed Precip Events Conditions
12:53 AM 64.0 °F 63.0 °F 96% 30.12 in 10.0 mi SE 4.6 mph - N/A   Clear
1:53 AM 66.0 °F 64.9 °F 96% 30.12 in 10.0 mi SE 4.6 mph - N/A   Clear
2:53 AM 64.9 °F 64.0 °F 97% 30.11 in 8.0 mi SE 5.8 mph - N/A   Clear
3:53 AM 64.9 °F 63.0 °F 93% 30.11 in 7.0 mi SSE 4.6 mph - N/A   Clear
4:53 AM 64.0 °F 61.0 °F 90% 30.11 in 10.0 mi SSE 8.1 mph - N/A   Clear
5:53 AM 63.0 °F 61.0 °F 93% 30.12 in 9.0 mi SSE 5.8 mph - N/A   Clear
6:53 AM 61.0 °F 60.1 °F 97% 30.14 in 5.0 mi SSE 8.1 mph - N/A   Clear
7:34 AM 60.1 °F 60.1 °F 100% 30.16 in 2.5 mi SE 10.4 mph - N/A   Clear
7:41 AM 60.1 °F 60.1 °F 100% 30.16 in 2.5 mi SSE 8.1 mph - N/A   Partly Cloudy
7:53 AM 60.1 °F 60.1 °F 100% 30.16 in 2.0 mi South 6.9 mph - N/A   Mostly Cloudy
8:17 AM 60.8 °F 60.8 °F 100% 30.16 in 0.8 mi SSE 6.9 mph - N/A   Overcast
8:26 AM 61.0 °F 61.0 °F 100% 30.16 in 0.2 mi SE 9.2 mph - N/A Fog Fog
8:53 AM 62.1 °F 62.1 °F 100% 30.16 in 0.2 mi SE 8.1 mph - N/A Fog Fog
9:07 AM 63.0 °F 63.0 °F 100% 30.16 in 0.2 mi SSE 9.2 mph - N/A Fog Fog
9:21 AM 63.0 °F 63.0 °F 100% 30.16 in 0.5 mi SSE 10.4 mph - N/A Fog Fog
10:53 AM 64.9 °F 64.9 °F 100% 30.16 in 2.0 mi SSE 8.1 mph - N/A   Overcast
11:53 AM 66.9 °F 64.9 °F 93% 30.15 in 4.0 mi SE 11.5 mph - N/A   Overcast
12:13 PM 68.0 °F 66.0 °F 93% 30.16 in 5.0 mi ESE 8.1 mph - N/A   Overcast
12:53 PM 70.0 °F 66.0 °F 87% 30.14 in 6.0 mi SSE 9.2 mph - N/A   Overcast
1:53 PM 73.9 °F 68.0 °F 82% 30.12 in 8.0 mi SSE 8.1 mph 17.3 mph N/A   Mostly Cloudy
2:38 PM 73.9 °F 66.9 °F 79% 30.11 in 10.0 mi South 11.5 mph - N/A   Partly Cloudy
2:53 PM 73.9 °F 66.9 °F 79% 30.10 in 10.0 mi SSE 13.8 mph 19.6 mph N/A   Clear
3:53 PM 75.0 °F 66.9 °F 76% 30.09 in 10.0 mi SSE 13.8 mph 20.7 mph N/A   Clear
4:53 PM 73.9 °F 66.9 °F 79% 30.07 in 10.0 mi SSE 9.2 mph - N/A   Clear
5:53 PM 73.9 °F 66.9 °F 79% 30.07 in 10.0 mi SE 11.5 mph - N/A   Clear
6:53 PM 71.1 °F 68.0 °F 90% 30.07 in 9.0 mi SE 5.8 mph - N/A   Clear
7:53 PM 69.1 °F 66.9 °F 93% 30.06 in 8.0 mi ESE 6.9 mph - N/A   Clear
8:53 PM 69.1 °F 66.9 °F 93% 30.07 in 8.0 mi SE 13.8 mph - N/A   Clear
9:53 PM 68.0 °F 66.0 °F 93% 30.08 in 8.0 mi SSE 6.9 mph - N/A   Clear
10:53 PM 68.0 °F 66.0 °F 93% 30.08 in 9.0 mi SSE 8.1 mph - N/A   Clear
11:53 PM 68.0 °F 66.0 °F 93% 30.07 in 10.0 mi SSE 13.8 mph - N/A   Clear